Gallup, NM

2:32 AM MST on February 11, 2016 (GMT -0700)
Gallup Municipal

Weather History for KGUP - October, 2013

Change the Weather History Date:

Friday, October 25, 2013

  Actual Average Record
Temperature  
Mean Temperature 50 °F -  
Max Temperature 64 °F 59 °F 76 °F (1988)
Min Temperature 36 °F 26 °F 9 °F (1997)
Degree Days  
Heating Degree Days 15    
Moisture  
Dew Point 41 °F    
Average Humidity 78    
Maximum Humidity 97    
Minimum Humidity 45    
Precipitation  
Precipitation 0.32 in - - ()
Sea Level Pressure  
Sea Level Pressure 30.09 in    
Wind  
Wind Speed 10 mph (ENE)    
Max Wind Speed 25 mph    
Max Gust Speed 34 mph    
Visibility 10 miles    
Events Rain , Thunderstorm    
Averages and records for this station are not official NWS values.
T = Trace of Precipitation, MM = Missing Value Source: NWS Daily Summary

Daily Weather History Graph

Daily Weather History Graph

Search for Another Location

Airport or City:

Trip Planner

Search our weather history database for the weather conditions in past years. The results will help you decide how hot, cold, wet, or windy it might be!

Date:

Astronomy

Oct. 25, 2013 Rise Set
Actual Time 7:30 AM MDT 6:27 PM MDT
Civil Twilight 7:04 AM MDT 6:53 PM MDT
Nautical Twilight 6:34 AM MDT 7:23 PM MDT
Astronomical Twilight 6:05 AM MDT 7:52 PM MDT
Moon 11:52 PM MDT (10/25) 1:09 PM MDT (10/25)
Length of Visible Light 11h 48m
Length of Day
10h 56m
Waning Gibbous, 62% of the Moon is Illuminated
Oct 25
Waning Gibbous
Oct 26
Last Quarter
Nov 3
New
Nov 9
First Quarter
Nov 17
Full

Hourly Weather History & Observations

Time (MDT) Temp. Windchill Dew Point Humidity Pressure Visibility Wind Dir Wind Speed Gust Speed Precip Events Conditions
12:53 AM 48.9 °F - 44.1 °F 83% 29.97 in 8.0 mi ENE 10.4 mph - 0.02 in Rain Light Rain
1:53 AM 48.0 °F - 44.1 °F 86% 29.94 in 10.0 mi East 21.9 mph - 0.15 in Rain Light Rain
2:53 AM 46.9 °F - 45.0 °F 93% 30.04 in 4.0 mi South 3.5 mph - 0.04 in Rain Rain
3:53 AM 46.9 °F - 44.1 °F 90% 30.03 in 10.0 mi East 9.2 mph - 0.03 in   Mostly Cloudy
4:53 AM 46.0 °F 41.0 °F 44.1 °F 93% 30.03 in 10.0 mi ENE 10.4 mph - 0.01 in   Overcast
5:31 AM 46.4 °F 41.9 °F 44.6 °F 93% 30.28 in 10.0 mi NE 9.2 mph - N/A Thunderstorm Mostly Cloudy
5:53 AM 46.0 °F 44.8 °F 43.0 °F 89% 30.10 in 10.0 mi North 3.5 mph - N/A Thunderstorm Thunderstorm
6:10 AM 46.4 °F 41.9 °F 42.8 °F 87% 30.29 in 10.0 mi ENE 9.2 mph - 0.04 in Rain Light Rain
6:53 AM 46.0 °F 41.0 °F 43.0 °F 89% 30.09 in 10.0 mi ESE 10.4 mph - 0.04 in   Mostly Cloudy
7:53 AM 45.0 °F 40.1 °F 42.1 °F 90% 30.10 in 10.0 mi ENE 9.2 mph - N/A   Clear
8:53 AM 48.0 °F - 42.1 °F 80% 30.09 in 10.0 mi NE 4.6 mph - N/A   Clear
9:53 AM 52.0 °F - 44.1 °F 74% 30.07 in 10.0 mi Variable 3.5 mph - N/A   Clear
10:53 AM 57.9 °F - 44.1 °F 60% 30.01 in 10.0 mi SSE 12.7 mph 16.1 mph N/A   Clear
11:53 AM 60.1 °F - 45.0 °F 57% 29.99 in 10.0 mi South 9.2 mph - N/A   Clear
12:53 PM 61.0 °F - 44.1 °F 54% 29.97 in 10.0 mi SSW 12.7 mph 18.4 mph N/A   Partly Cloudy
1:53 PM 63.0 °F - 41.0 °F 45% 29.90 in 10.0 mi SSW 12.7 mph - N/A   Partly Cloudy
2:53 PM 55.9 °F - 36.0 °F 47% 30.00 in 10.0 mi North 19.6 mph 26.5 mph N/A   Mostly Cloudy
3:02 PM 53.6 °F - 37.4 °F 54% 30.24 in 10.0 mi NW 25.3 mph 34.5 mph N/A Thunderstorm Mostly Cloudy
3:34 PM 46.4 °F 38.3 °F 39.2 °F 76% 30.27 in 7.0 mi NNW 23.0 mph 29.9 mph 0.02 in Rain Rain
3:53 PM 48.0 °F - 39.9 °F 74% 30.06 in 10.0 mi North 17.3 mph 24.2 mph 0.03 in   Mostly Cloudy
4:53 PM 48.0 °F - 41.0 °F 77% 30.12 in 10.0 mi ENE 11.5 mph - N/A   Overcast
5:53 PM 48.9 °F - 39.0 °F 69% 30.08 in 10.0 mi East 8.1 mph - N/A   Partly Cloudy
6:53 PM 46.9 °F - 39.0 °F 74% 30.09 in 10.0 mi NE 3.5 mph - N/A   Partly Cloudy
7:53 PM 42.1 °F - 37.9 °F 85% 30.16 in 10.0 mi Calm Calm - N/A   Clear
8:53 PM 37.9 °F - 36.0 °F 93% 30.20 in 10.0 mi Calm Calm - N/A   Clear
9:53 PM 39.0 °F - 36.0 °F 89% 30.16 in 10.0 mi Calm Calm - N/A   Clear
10:53 PM 39.0 °F - 36.0 °F 89% 30.11 in 10.0 mi Calm Calm - N/A   Clear
11:53 PM 36.0 °F - 35.1 °F 97% 30.13 in 10.0 mi Calm Calm - N/A   Clear